Prescott, AZ

3:16 AM MST on April 22, 2018 (GMT -0700)
Love

Weather History for KPRC - February, 2014

Change the Weather History Date:

Wednesday, February 26, 2014

  Actual Average Record
Temperature  
Mean Temperature 50 °F 43 °F  
Max Temperature 66 °F 57 °F 78 °F (1986)
Min Temperature 34 °F 30 °F 17 °F (1996)
Degree Days  
Heating Degree Days 15    
Month to date heating degree days 493  
Since 1 July heating degree days 2885  
Cooling Degree Days 0    
Month to date cooling degree days 0  
Year to date cooling degree days 0  
Moisture  
Dew Point 26 °F    
Average Humidity 41    
Maximum Humidity 59    
Minimum Humidity 19    
Precipitation  
Precipitation 0.00 in 0.05 in 0.52 in (2003)
Month to date precipitation T 1.29  
Year to date precipitation 0.05 2.41  
Sea Level Pressure  
Sea Level Pressure 29.94 in    
Wind  
Wind Speed 5 mph (SW)    
Max Wind Speed 17 mph    
Max Gust Speed 22 mph    
Visibility 10 miles    
Events      
T = Trace of Precipitation, MM = Missing Value Source: NWS Daily Summary

Daily Weather History Graph

Daily Weather History Graph

Search for Another Location

Airport or City:

Astronomy

Feb. 26, 2014 Rise Set
Actual Time 7:02 AM MST 6:23 PM MST
Civil Twilight 6:37 AM MST 6:48 PM MST
Nautical Twilight 6:07 AM MST 7:17 PM MST
Astronomical Twilight 5:38 AM MST 7:46 PM MST
Moon 4:46 AM MST (2/26) 3:46 PM MST (2/26)
Length of Visible Light 12h 11m
Length of Day
11h 20m
Waning Crescent, 9% of the Moon is Illuminated
Feb 26
Waning Crescent
Mar 1
New
Mar 8
First Quarter
Mar 16
Full
Mar 23
Last Quarter

Hourly Weather History & Observations

Time (MST) Temp. Windchill Dew Point Humidity Pressure Visibility Wind Dir Wind Speed Gust Speed Precip Events Conditions
12:53 AM 39.9 °F - 24.1 °F 53% 29.96 in 10.0 mi Calm Calm - N/A   Clear
1:53 AM 42.1 °F 38.4 °F 24.1 °F 49% 29.95 in 10.0 mi SSW 5.8 mph - N/A   Clear
2:53 AM 39.0 °F 36.8 °F 24.1 °F 55% 29.95 in 10.0 mi South 3.5 mph - N/A   Clear
3:53 AM 37.0 °F 31.6 °F 23.0 °F 57% 29.94 in 10.0 mi SSE 6.9 mph - N/A   Clear
4:53 AM 39.0 °F 34.0 °F 23.0 °F 53% 29.94 in 10.0 mi SSW 6.9 mph - N/A   Clear
5:53 AM 37.9 °F - 24.1 °F 57% 29.97 in 10.0 mi Calm Calm - N/A   Clear
6:53 AM 36.0 °F 33.3 °F 23.0 °F 59% 30.00 in 10.0 mi SSW 3.5 mph - N/A   Clear
7:53 AM 37.9 °F - 24.1 °F 57% 30.01 in 10.0 mi Calm Calm - N/A   Clear
8:53 AM 46.9 °F - 24.1 °F 41% 30.00 in 10.0 mi Calm Calm - N/A   Clear
9:53 AM 54.0 °F - 27.0 °F 35% 30.00 in 10.0 mi Calm Calm - N/A   Partly Cloudy
10:53 AM 57.9 °F - 25.0 °F 28% 29.96 in 10.0 mi ESE 4.6 mph - N/A   Clear
11:53 AM 62.1 °F - 24.1 °F 23% 29.95 in 10.0 mi Variable 5.8 mph - N/A   Clear
12:53 PM 63.0 °F - 21.9 °F 21% 29.93 in 10.0 mi West 11.5 mph - N/A   Clear
1:53 PM 64.0 °F - 21.0 °F 19% 29.89 in 10.0 mi South 11.5 mph - N/A   Clear
2:53 PM 64.9 °F - 24.1 °F 21% 29.88 in 10.0 mi West 11.5 mph 16.1 mph N/A   Partly Cloudy
3:53 PM 63.0 °F - 26.1 °F 25% 29.88 in 10.0 mi WSW 13.8 mph - N/A   Scattered Clouds
4:53 PM 61.0 °F - 28.0 °F 29% 29.88 in 10.0 mi WSW 13.8 mph - N/A   Clear
5:30 PM 59.0 °F - 30.0 °F 33% 30.00 in 10.0 mi WSW 16.1 mph - N/A   Partly Cloudy
5:53 PM 59.0 °F - 30.0 °F 33% 29.89 in 10.0 mi WSW 10.4 mph - N/A   Scattered Clouds
6:53 PM 55.9 °F - 30.9 °F 39% 29.92 in 10.0 mi WSW 6.9 mph - N/A   Partly Cloudy
7:53 PM 55.0 °F - 32.0 °F 42% 29.93 in 10.0 mi SSW 3.5 mph - N/A   Mostly Cloudy
8:53 PM 54.0 °F - 32.0 °F 43% 29.91 in 10.0 mi SSW 6.9 mph - N/A   Mostly Cloudy
9:53 PM 52.0 °F - 30.9 °F 45% 29.91 in 10.0 mi Calm Calm - N/A   Overcast
10:53 PM 48.0 °F - 30.9 °F 52% 29.91 in 10.0 mi Calm Calm - N/A   Clear
11:53 PM 46.9 °F - 30.9 °F 54% 29.89 in 10.0 mi Calm Calm - N/A   Clear